Regional Weather Roundup
Issued by NWS

Home | Current Version | Previous Version | Graphics & Text | Print | Product List | Glossary On
Versions: 1 2 3 4 5 6 7 8 9 10 11 12 13 14 15 16 17 18 19 20 21 22 23 24 25 26 27 28
000
ASUS45 KBOI 161710
RWRID
WEATHER ROUNDUP FOR IDAHO
NATIONAL WEATHER SERVICE BOISE ID
1100 AM MDT WED APR 16 2014

NOTE: "FAIR" INDICATES FEW OR NO CLOUDS BELOW 12000 FEET
WITH NO SIGNIFICANT WEATHER AND/OR OBSTRUCTIONS TO VISIBILITY

IDZ012-014-161800-
SOUTHWEST IDAHO


CITY           SKY/WX    TMP DP  RH WIND       PRES   REMARKS
BOISE          SUNNY     51  20  29 N5        30.06F
CALDWELL       SUNNY     48  25  40 CALM      30.10S
MOUNTAIN HOME  CLOUDY    53  17  24 NW16      30.05F
$$

IDZ016-017-161800-
SOUTHCENTRAL IDAHO


CITY           SKY/WX    TMP DP  RH WIND       PRES   REMARKS
BURLEY         SUNNY     48  19  31 W12       30.04S
JEROME         MOSUNNY   45  20  36 SW9       30.06R
TWIN FALLS     PTSUNNY   50  18  28 W16G22    30.05S
$$

IDZ019>023-161800-
SOUTHEAST IDAHO


CITY           SKY/WX    TMP DP  RH WIND       PRES   REMARKS
IDAHO FALLS    MOSUNNY   44  17  33 VRB5      30.04S
POCATELLO      SUNNY     47  14  26 N7        30.05S
REXBURG        SUNNY     41  16  36 VRB3      30.03S
$$

IDZ006-010-011-018-031-032-161800-
CENTRAL IDAHO MOUNTAINS


CITY           SKY/WX    TMP DP  RH WIND       PRES   REMARKS
MCCALL         CLOUDY    39  18  42 CALM      30.02F
HAILEY         PTSUNNY   43  16  33 SE6       30.05S
STANLEY          N/A     30  14  51 N3        30.04S
SALMON         MOSUNNY   45  19  36 NE5       30.02F
CHALLIS        PTSUNNY   42  14  32 VRB3      30.02F
$$

IDZ002-004-006-007-026-161800-
NORTHERN IDAHO


CITY           SKY/WX    TMP DP  RH WIND       PRES   REMARKS
LEWISTON       CLOUDY    50  28  42 E3        30.07S
LOWELL           N/A     48  36  63 N3        30.10F
COEUR D`ALENE  CLOUDY    43  30  61 SW12      30.05R
MULLAN PASS    CLOUDY    28  25  86 VRB6      29.96R WCI  22
$$



USA.gov is the U.S. government's official web portal to all federal, state and local government web resources and services.